Regional Weather Roundup
Issued by NWS

Home | Current Version | Previous Version | Graphics & Text | Print | Product List | Glossary On
Versions: 1 2 3 4 5 6 7 8 9 10 11 12 13 14 15 16 17 18 19 20 21 22 23 24 25 26 27 28 29 30 31 32 33 34 35 36 37 38 39 40 41 42 43 44 45 46 47 48 49 50
000
ASUS43 KIND 151709
RWRIN

WEATHER ROUNDUP FOR INDIANA
NATIONAL WEATHER SERVICE INDIANAPOLIS IN
1200 PM EST SUN JAN 15 2017

NOTE: "FAIR" INDICATES FEW OR NO CLOUDS BELOW 12,000 FEET WITH NO
SIGNIFICANT WEATHER AND/OR OBSTRUCTIONS TO VISIBILITY.

* - STATION DOES NOT REPORT WEATHER SUCH AS PRECIPITATION OR FOG.

+ - STATION NOT QUALITY CONTROLLED BY THE NATIONAL WEATHER SERVICE.
    USE DATA WITH CAUTION...ESPECIALLY DEWPOINT AND RELATIVE
    HUMIDITY OBSERVATIONS.

INZ001>003-010>013-019-020-151800-
NORTHWEST INDIANA

CITY           SKY/WX    TMP DP  RH WIND       PRES   REMARKS
GARY /AIRPORT/ CLOUDY    30  25  80 CALM      30.43F
KNOX *+        CLOUDY    30  14  51 CALM      30.42F
LA PORTE +     CLOUDY    30  26  83 CALM      30.42F
MICHIGAN CITY+ CLOUDY    32  28  86 CALM      30.43F
MONTICELLO +   CLOUDY    32  26  78 E5        30.42F WCI  27
RENSSELAER +   PTSUNNY   32  30  93 CALM      30.42F FOG
VALPARAISO     CLOUDY    31  27  85 S3        30.42F FOG

$$

LMZ046-743>745-151800-
SOUTHERN LAKE MICHIGAN

STATION/POSITION TIME  TEMP    WIND        PRES    WAVE
                       AIR SEA DIR/SP/G            HT
                 (UTC) (F)     (DEG/KT/KT) (MB)    (FT)
BURNS HARBOR     1640   29     190/  4/  5 1030.8F

$$

INZ004-005-014>016-021>024-151800-
NORTH CENTRAL INDIANA

CITY           SKY/WX    TMP DP  RH WIND       PRES   REMARKS
ELKHART        SUNNY     30  27  86 CALM      30.43F FOG
GOSHEN         CLOUDY    31  25  78 CALM      30.42F
LOGANSPORT +   CLOUDY    32  27  80 E8        30.43F WCI  25
PERU/GRISSOM   CLOUDY    32  26  81 E7        30.40F WCI  25
ROCHESTER +    CLOUDY    32  28  86 SE5       30.42F WCI  27
SOUTH BEND     CLOUDY    29  25  85 SW3       30.43F
WARSAW +       CLOUDY    30  19  64 CALM      30.41F

$$

INZ006>009-017-018-025>027-151800-
NORTHEAST INDIANA

CITY           SKY/WX    TMP DP  RH WIND       PRES   REMARKS
ANGOLA *+      SUNNY     28  27  93 CALM      30.40F
AUBURN +       CLOUDY    30  25  80 CALM      30.42F
FORT WAYNE     CLOUDY    30  24  78 E5        30.42F WCI  25
HUNTINGTON +   CLOUDY    30  26  86 E3        30.41F
KENDALLVILLE + CLOUDY    30  26  87 S3        30.41F

$$

INZ028-029-035-036-043>045-051>053-151800-
WEST CENTRAL INDIANA

CITY           SKY/WX    TMP DP  RH WIND       PRES   REMARKS
CRAWFORDSVL +  CLOUDY    30  30  99 E7        30.39F WCI  23
GREENCASTLE +  CLOUDY    32  30  93 E3        30.39F FOG
LAFAYETTE      PTSUNNY   32  29  88 E7        30.41F WCI  26
TERRE HAUTE    CLOUDY    34  29  82 NE5       30.40F HAZE    WCI  30

$$

INZ030>032-037>040-046>048-054>057-064-065-151800-
CENTRAL INDIANA

CITY           SKY/WX    TMP DP  RH WIND       PRES   REMARKS
CP ATTERBURY + CLOUDY    34  32  93 E3        30.40F FOG
COLUMBUS       CLOUDY    32  32 100 N5        30.41F FOG     WCI  27
FRANKFORT +    PTSUNNY   34  29  85 SE6       30.42F WCI  28
GREENWOOD *+   CLOUDY    34  31  89 E6        30.40F WCI  29
INDIANAPOLIS   CLOUDY    33  28  81 E8        30.39F FOG     WCI  26
-EAGLE CREEK   CLOUDY    32  26  78 E3        30.39F HAZE
KOKOMO +       MOSUNNY   32  26  78 E7        30.42F WCI  26
MARION +       MOSUNNY   30  27  86 E5        30.41F WCI  25
MT COMFORT *+  CLOUDY    30  28  93 E5        30.40F WCI  25
SHELBYVILLE    CLOUDY    34  29  82 E5        30.40F HAZE    WCI  30
ZIONSVILLE +   CLOUDY    30  27  88 E5        30.41F FOG     WCI  25

$$

INZ033-034-041-042-049-050-058-059-151800-
EAST CENTRAL INDIANA

CITY           SKY/WX    TMP DP  RH WIND       PRES   REMARKS
MUNCIE         CLOUDY    32  26  78 E5        30.41F HAZE    WCI  27

$$

INZ060-061-067>069-081>083-085>088-151800-
SOUTHWEST INDIANA

CITY           SKY/WX    TMP DP  RH WIND       PRES   REMARKS
EVANSVILLE     CLOUDY    39  36  89 E6        30.38F FOG
HUNTINGBURG *+ CLOUDY    37  36  93 E6        30.39F
WASHINGTON +   LGT RAIN  37  35  93 E6        30.38F

$$

INZ062-063-066-070>080-084-089>092-151800-
SOUTH CENTRAL AND SOUTHEAST INDIANA

CITY           SKY/WX    TMP DP  RH WIND       PRES   REMARKS
BLOOMINGTON    LGT RAIN  35  31  85 E6        30.38F FOG     WCI  30
MADISON *+     CLOUDY    37  34  87 E3        30.41F
NORTH VERNON + LGT RAIN N/A N/A N/A E3        30.41F
SEYMOUR +      LGT RAIN  37  36  93 E5        30.39F

$$





USA.gov is the U.S. government's official web portal to all federal, state and local government web resources and services.